Bakersfield, CA

4:08 AM PDT on June 21, 2018 (GMT -0700)
Meadows

Weather History for KBFL - October, 2017

Change the Weather History Date:

Sunday, October 8, 2017

  Actual Average Record
Temperature  
Mean Temperature 72 °F 70 °F  
Max Temperature 85 °F 83 °F 98 °F (1953)
Min Temperature 58 °F 58 °F 36 °F (1908)
Degree Days  
Heating Degree Days 0    
Month to date heating degree days 0  
Since 1 July heating degree days 1  
Cooling Degree Days 7    
Month to date cooling degree days 29  
Year to date cooling degree days 2832  
Growing Degree Days 20 (Base 50)    
Moisture  
Dew Point 42 °F    
Average Humidity 38    
Maximum Humidity 52    
Minimum Humidity 23    
Precipitation  
Precipitation 0.00 in 0.01 in 0.57 in (1904)
Month to date precipitation 0.00 0.04  
Year to date precipitation 5.31 4.55  
Snow  
Snow 0.00 in - - ()
Month to date snowfall 0.0  
Since 1 July snowfall 0.0  
Since 1 September snowfall 0.0  
Snow Depth 0.00 in    
Sea Level Pressure  
Sea Level Pressure 29.74 in    
Wind  
Wind Speed 6 mph (NNW)    
Max Wind Speed 14 mph    
Max Gust Speed 19 mph    
Visibility 10 miles    
Events      
T = Trace of Precipitation, MM = Missing Value Source: NWS Daily Summary

Daily Weather History Graph

Daily Weather History Graph

Search for Another Location

Airport or City:

Astronomy

Oct. 08, 2017 Rise Set
Actual Time 6:57 AM PDT 6:29 PM PDT
Civil Twilight 6:31 AM PDT 6:55 PM PDT
Nautical Twilight 6:02 AM PDT 7:24 PM PDT
Astronomical Twilight 5:32 AM PDT 7:54 PM PDT
Moon 9:00 PM PDT (10/8) 9:59 AM PDT (10/8)
Length of Visible Light 12h 23m
Length of Day
11h 32m
Waning Gibbous, 88% of the Moon is Illuminated
Oct 8
Waning Gibbous
Oct 12
Last Quarter
Oct 19
New
Oct 27
First Quarter
Nov 3
Full

Hourly Weather History & Observations

Time (PDT) Temp. Dew Point Humidity Pressure Visibility Wind Dir Wind Speed Gust Speed Precip Events Conditions
12:54 AM 66.0 °F 41.0 °F 40% 29.77 in 10.0 mi East 3.5 mph - N/A   Clear
1:54 AM 64.9 °F 39.9 °F 40% 29.76 in 10.0 mi SSE 3.5 mph - N/A   Clear
2:54 AM 66.0 °F 37.9 °F 36% 29.74 in 10.0 mi East 4.6 mph - N/A   Clear
3:54 AM 62.1 °F 39.9 °F 44% 29.74 in 10.0 mi ESE 3.5 mph - N/A   Clear
4:54 AM 66.0 °F 37.9 °F 36% 29.73 in 10.0 mi East 6.9 mph - N/A   Clear
5:54 AM 64.0 °F 37.9 °F 38% 29.73 in 10.0 mi Variable 3.5 mph - N/A   Clear
6:54 AM 60.1 °F 37.0 °F 42% 29.74 in 10.0 mi Calm Calm - N/A   Clear
7:54 AM 62.1 °F 39.0 °F 43% 29.75 in 10.0 mi Calm Calm - N/A   Clear
8:54 AM 69.1 °F 39.0 °F 33% 29.75 in 10.0 mi SE 3.5 mph - N/A   Clear
9:54 AM 72.0 °F 39.9 °F 31% 29.76 in 10.0 mi WSW 3.5 mph - N/A   Clear
10:54 AM 75.9 °F 41.0 °F 29% 29.77 in 10.0 mi Variable 4.6 mph - N/A   Clear
11:54 AM 81.0 °F 43.0 °F 26% 29.76 in 10.0 mi NW 9.2 mph - N/A   Clear
12:54 PM 82.0 °F 45.0 °F 27% 29.75 in 10.0 mi NW 10.4 mph - N/A   Clear
1:54 PM 82.9 °F 44.1 °F 25% 29.72 in 10.0 mi WNW 10.4 mph - N/A   Clear
2:54 PM 84.0 °F 44.1 °F 25% 29.71 in 10.0 mi West 8.1 mph - N/A   Clear
3:54 PM 84.9 °F 43.0 °F 23% 29.71 in 10.0 mi WNW 10.4 mph - N/A   Clear
4:54 PM 84.9 °F 43.0 °F 23% 29.69 in 10.0 mi WNW 9.2 mph - N/A   Clear
5:54 PM 82.9 °F 44.1 °F 25% 29.70 in 10.0 mi NW 11.5 mph - N/A   Clear
6:54 PM 75.9 °F 45.0 °F 33% 29.72 in 10.0 mi NNW 8.1 mph - N/A   Clear
7:54 PM 73.0 °F 46.9 °F 39% 29.74 in 10.0 mi NNW 8.1 mph - N/A   Clear
8:54 PM 71.1 °F 46.0 °F 41% 29.75 in 10.0 mi North 5.8 mph - N/A   Clear
9:54 PM 66.0 °F 46.0 °F 48% 29.78 in 10.0 mi NNW 6.9 mph - N/A   Clear
10:54 PM 64.0 °F 45.0 °F 50% 29.80 in 10.0 mi NNW 4.6 mph - N/A   Clear
11:54 PM 62.1 °F 45.0 °F 53% 29.81 in 10.0 mi NW 5.8 mph - N/A   Clear